{"data":{"norad_id":38107,"epoch":"2026-05-25T02:23:45.566880Z","epoch_age_seconds":70427,"freshness":"FRESH","line1":"1 38107U 12013A   26145.09983295 -.00000104  00000+0  00000+0 0  9993","line2":"2 38107   0.0415 109.9963 0002424 316.5155 288.6228  1.00271360 51570","mean_motion":1.0027136,"eccentricity":0.0002424,"inclination_deg":0.0415,"raan_deg":109.9963,"arg_perigee_deg":316.5155,"mean_anomaly_deg":288.6228,"bstar":0,"rev_number":5157,"period_min":1436.1029909238,"perigee_km":35776.493344632,"apogee_km":35796.934864447,"semimajor_km":42164.851104539,"source":"CELESTRAK","updated_at":"2026-05-25T13:38:13.909531Z"}}